This is the latest recevied weather packets stored in our database for station/object ZS1BR-13. If no packets are shown the sender has not sent any weather packets the latest 10 day(s).
| Time | Temp. | Humidity | Pressure | Rain* | Wind** | Luminosity | Snow |
|---|---|---|---|---|---|---|---|
| 1777476939 | 20° C | 58% | 1020 hPa | 0 mm | - | - | - |
| 1777473353 | 20.56° C | 56% | 1020.2 hPa | 0 mm | - | - | - |
| 1777472136 | 20.56° C | 56% | 1020.3 hPa | 0 mm | - | - | - |
| 1777469764 | 20.56° C | 56% | 1020.3 hPa | 0 mm | - | - | - |
| 1777468549 | 20.56° C | 56% | 1020.3 hPa | 0 mm | - | - | - |
| 1777467939 | 20.56° C | 56% | 1020.4 hPa | 0 mm | - | - | - |
| 1777466176 | 20.56° C | 57% | 1020.6 hPa | 0 mm | - | - | - |
| 1777465568 | 20° C | 57% | 1020.8 hPa | 0 mm | - | - | - |
| 1777464352 | 19.44° C | 58% | 1021 hPa | 0 mm | - | - | - |
| 1777462526 | 18.89° C | 59% | 1021.6 hPa | 0 mm | - | - | - |
| 1777461371 | 18.89° C | 60% | 1022 hPa | 0 mm | - | - | - |
| 1777460762 | 18.33° C | 60% | 1022.1 hPa | 0 mm | - | - | - |
| 1777458939 | 17.78° C | 60% | 1022.5 hPa | 0 mm | - | - | - |
| 1777457723 | 17.22° C | 62% | 1022.9 hPa | 0 mm | - | - | - |
| 1777457175 | 17.22° C | 62% | 1023 hPa | 0 mm | - | - | - |
| 1777456568 | 17.22° C | 63% | 1023.2 hPa | 0 mm | - | - | - |
| 1777455353 | 16.67° C | 65% | 1023.3 hPa | 0 mm | - | - | - |
| 1777454745 | 16.67° C | 65% | 1023.4 hPa | 0 mm | - | - | - |
| 1777454137 | 16.11° C | 66% | 1023.5 hPa | 0 mm | - | - | - |
| 1777453529 | 16.11° C | 67% | 1023.6 hPa | 0 mm | - | - | - |
| 1777452922 | 16.11° C | 66% | 1023.7 hPa | 0 mm | - | - | - |
| 1777452374 | 16.11° C | 64% | 1023.7 hPa | 0 mm | - | - | - |
| 1777451766 | 16.11° C | 65% | 1023.9 hPa | 0 mm | - | - | - |
| 1777451157 | 16.11° C | 66% | 1024 hPa | 0 mm | - | - | - |
| 1777450550 | 16.11° C | 66% | 1024.2 hPa | 0 mm | - | - | - |
* Rain latest hour (hover to see other rain measurements)
** Current wind speed in m/s (hover to see current wind gust speed)